Regional Weather Roundup
Issued by NWS

Home | Current Version | Previous Version | Text Only | Print | Product List | Glossary On
Versions: 1 2 3 4 5 6 7 8 9 10 11 12 13 14 15 16 17 18 19 20 21 22 23 24 25 26 27 28 29 30 31 32 33 34 35 36 37 38 39 40 41 42 43 44 45 46 47 48 49 50
000
ASUS42 KKEY 211810
RWRKEY

FLORIDA REGIONAL WEATHER ROUNDUP FOR THE FLORIDA KEYS
NATIONAL WEATHER SERVICE KEY WEST FLORIDA
100 PM EST FRI NOV 21 2014

...SOUTH FLORIDA AND THE KEYS...

CITY           SKY/WX    TMP DP  RH WIND       PRES   REMARKS
FORT MYERS     CLOUDY    69  61  75 NE16G22   30.17F
SW REGIONAL AP LGT RAIN  67  63  87 NE12      30.17F
NAPLES         CLOUDY    70  63  78 NE15      30.15F
MIAMI          LGT RAIN  72  69  90 NE12      30.14F
WEST KENDALL   CLOUDY    72  70  93 NE17      30.13F
HOMESTEAD      LGT RAIN  73  70  88 NE16      30.11F
MARATHON       LGT RAIN  72  72 100 NE14      30.09F
BOCA CHICA NAS CLOUDY    73  69  87 NE17G26   30.09F
KEY WEST INTL  PTSUNNY   73  73 100 NE17G24   30.09F

...INTERNATIONAL WEATHER...

CITY           SKY/WX    TMP DP  RH WIND       PRES   REMARKS
NASSAU BAHAMAS PTSUNNY   79  75  89 E18       30.10F
CANCUN MEXICO  PTSUNNY   84  73  70 NE12      30.06F HX  91
COZUMEL MEXICO PTSUNNY   81  73  78 E9        30.05F

ADJACENT COASTAL WATERS...

STATION/POSITION TIME  SKY/WX   TEMP    WIND        PRES    WAVE
                                AIR SEA DIR/SP/G            HT/PER
                 (UTC)          (F)     (DEG/KT/KT) (MB)    (FT/S)
PULASKI SHOAL LI 1700            70      50/ 28/ 32 1019.8F
SAND KEY         1800            71      40/ 25/ 28 1018.5F
SOMBRERO KEY     1800            71      30/ 19/ 21 1018.8F
LONG KEY         1658            71 72   40/ 18/ 20 1020.6F
MOLASSES REEF    1800            76 77   70/ 25/ 28 1018.5F
FOWEY ROCKS      NOT AVBL
Buoy 42080       NOT AVBL

$$


USA.gov is the U.S. government's official web portal to all federal, state and local government web resources and services.